Location: Mizzole
(45.4833°N, 11.0500°E)
Time: 15:21:55
(UTC+00:00)

Meteor 1-16 Rocket - Pass Details

Date: 21 October 2019
Orbit: 790 x 907 km, 81.2° (Epoch: 21 November)

Event Time Altitude Azimuth Distance (km) Brightness Sun altitude
Rises 16:50:28 0° 184° (S) 3,387 7.5 -5.9°
Reaches altitude 10° 16:52:54 10° 183° (S) 2,439 6.8 -6.3°
Maximum altitude 16:58:23 76° 98° (E) 845 4.1 -7.3°
Drops below altitude 10° 17:03:46 10° 14° (NNE) 2,390 6.4 -8.2°
Sets 17:06:08 0° 13° (NNE) 3,315 7.1 -8.6°
